RH
63 72 82 80 74 68 62 60 57 66 62 74 60 67 62 58 56 60 57 58 62 64 69 63 55 55 55 59 61 62 67 67 60 53 50 55 54 56 57 57 58 48 43 44 41 39 46 48 54
63 80 82 80 69 56 64 60 56 53 59 61 58 63 64 66 60 57 58 59 59 59 59 55 55 56 56 53 55 58 66 67 61 65 64 62 59 59 59 57 47 43 44 44 41 41 46 52 56
71 84 83 78 69 61 59 63 55 53 55 60 55 58 59 60 57 61 60 61 59 56 54 55 55 55 54 51 49 54 63 66 64 62 67 65 60 59 58 49 50 47 44 44 42 44 48 54 60
72 81 79 81 70 56 53 57 55 54 53 53 54 55 59 60 57 61 60 57 53 54 57 55 51 49 51 53 51 57 65 68 64 62 60 55 56 63 64 62 58 52 47 41 43 44 46 46 50
71 80 84 81 65 51 53 54 48 56 55 49 43 53 57 60 59 65 66 68 59 55 47 44 44 50 56 56 57 66 70 69 65 61 57 58 58 60 58 55 53 49 47 43 39 42 44 45 50
71 76 83 75 56 56 54 52 59 61 56 46 45 50 59 59 64 65 71 71 58 47 42 44 50 54 63 63 66 70 68 66 66 58 50 57 55 55 56 53 48 49 46 41 38 38 42 46 51
68 83 87 79 60 58 54 50 62 57 50 46 45 53 77 70 67 64 64 58 45 52 50 51 54 56 63 66 65 68 70 63 57 48 40 45 49 52 54 53 51 46 44 40 36 36 41 50 50
82 78 87 77 65 60 56 66 62 54 48 52 48 51 67 81 65 60 62 55 55 58 57 51 56 55 67 65 66 65 54 51 48 42 41 45 49 47 49 49 49 46 47 44 38 37 39 50 48
85 86 88 77 64 60 58 66 60 64 54 54 53 45 58 70 64 58 67 72 63 59 62 55 57 57 64 64 60 56 51 56 53 47 52 56 60 54 54 56 61 58 53 49 46 44 43 45 42
83 94 93 84 77 68 58 68 69 69 62 62 52 54 57 58 56 57 62 71 65 58 61 65 58 56 58 61 60 63 67 73 65 50 54 60 56 55 58 58 58 57 54 62 60 51 47 41 39
84 95 89 81 73 78 62 60 62 62 78 68 51 51 56 50 55 57 57 61 61 60 55 59 56 53 57 58 60 64 61 63 59 55 57 60 55 56 60 57 58 62 51 52 59 52 51 45 47
87 88 84 82 80 78 65 61 61 66 63 58 49 44 52 52 47 50 52 53 57 61 57 54 54 56 61 66 63 63 56 53 52 57 58 55 56 60 67 55 51 47 58 65 57 55 50 50 51
77 86 86 80 87 80 78 68 58 67 65 60 51 45 48 45 51 53 53 53 54 56 56 54 53 56 59 67 65 57 54 59 58 64 66 62 60 63 69 55 53 51 60 57 55 53 52 53 50
74 92 84 87 91 79 73 66 63 76 71 58 52 46 47 46 52 54 55 52 47 52 54 55 55 53 57 62 62 66 62 65 62 66 59 61 59 67 54 55 55 54 65 53 52 53 52 50 50
78 88 86 91 89 82 80 71 64 68 69 60 59 49 46 49 54 52 54 51 47 44 47 51 53 56 57 60 60 58 64 67 53 60 59 64 54 57 55 54 54 56 55 52 54 55 54 49 50
79 90 98 96 94 87 83 79 69 67 63 62 58 47 44 48 51 50 49 47 47 46 47 48 48 53 58 66 57 54 62 57 52 52 53 51 63 49 48 55 66 63 55 51 53 56 55 55 54
79 89 96 91 93 87 80 82 76 66 61 58 49 48 46 51 53 49 48 45 43 47 45 45 44 50 55 55 55 57 52 52 53 49 42 48 53 54 42 51 68 78 66 53 56 60 59 60 58
88 94 91 91 91 92 87 90 82 63 55 49 48 50 48 53 53 47 48 46 44 47 45 45 44 47 52 55 54 54 52 49 49 51 43 41 44 45 52 44 49 55 62 61 55 58 60 57 58
72 80 85 84 86 95 95 90 91 75 69 55 47 50 49 53 51 48 48 47 47 45 45 40 40 43 49 55 59 49 50 49 48 50 49 43 50 49 46 49 60 56 57 55 55 57 58 58 57
73 90 92 84 91 89 95 92 92 86 75 60 50 50 50 50 50 50 47 46 47 46 43 37 36 42 49 52 54 54 54 55 49 49 47 44 44 45 51 47 47 54 54 52 52 55 64 57 55
67 78 90 86 88 92 92 97 96 91 85 67 59 55 50 48 46 51 46 45 47 47 44 41 40 40 45 50 52 51 47 46 45 50 46 47 47 54 50 50 54 49 32 48 52 51 54 59 56
69 66 77 83 80 86 91 92 91 91 84 79 61 48 54 51 48 54 49 46 46 45 42 41 42 46 49 48 50 51 47 47 57 49 42 48 47 47 52 57 57 44 35 31 42 49 51 54 54
57 67 77 81 85 88 87 84 85 87 82 80 77 65 53 56 49 49 48 49 50 46 46 41 43 46 52 54 54 58 65 59 63 54 53 46 45 47 48 40 57 51 62 42 34 43 49 52 50
56 69 78 86 88 90 80 83 77 80 78 76 75 76 61 58 54 52 50 54 49 49 47 41 39 44 50 60 61 74 66 60 64 62 65 70 58 47 48 45 41 46 48 48 39 42 45 50 48
67 70 91 94 93 88 84 87 75 73 70 72 72 79 72 62 59 55 56 65 52 51 46 46 38 37 43 52 63 66 72 72 72 79 74 70 67 58 45 47 53 47 44 43 40 47 48 42 44
61 66 82 89 90 81 83 86 73 70 61 67 69 75 78 75 62 61 54 55 57 56 50 49 44 37 35 47 56 62 69 69 69 71 72 69 77 63 60 57 55 51 40 42 35 32 39 38 41
60 57 56 66 68 73 77 67 58 59 62 61 67 75 77 73 65 60 61 65 70 66 60 53 45 40 33 41 45 50 62 69 69 57 55 64 70 70 66 62 59 52 50 46 44 38 37 42 42
39 46 56 57 68 68 74 64 63 57 58 57 64 74 75 71 69 67 67 65 76 70 66 67 57 49 39 33 36 38 45 53 54 47 50 52 65 71 75 69 59 54 51 50 50 48 43 38 39
35 35 43 46 53 55 67 60 48 48 55 56 60 66 63 67 69 69 72 72 65 66 66 67 63 58 49 40 32 31 34 38 42 40 41 47 63 72 73 77 57 53 50 55 55 50 50 52 45
38 33 43 44 44 42 50 41 45 48 52 57 58 59 65 66 66 67 71 75 70 70 74 68 65 71 69 57 53 33 29 31 30 32 32 39 44 54 70 71 74 70 63 64 68 66 65 64 62